Location: ??
(31.9467°N, 34.8903°E)
Time: 17:56:32
(UTC+00:00)

Meteor 2-1 Rocket - Pass Details

Date: 29 October 2020
Orbit: 830 x 906 km, 81.3° (Epoch: 30 November)

Event Time Altitude Azimuth Distance (km) Brightness Sun altitude
Rises 15:33:14 0° 170° (S) 3,370 7.3 -9.1°
Reaches altitude 10° 15:35:44 10° 164° (SSE) 2,434 6.6 -9.6°
Maximum altitude 15:40:56 45° 93° (E) 1,114 4.4 -10.7°
Drops below altitude 10° 15:46:09 10° 22° (NNE) 2,441 6.3 -11.8°
Sets 15:48:39 0° 16° (NNE) 3,382 7.1 -12.3°
